World > North America > United States > Texas

Cross Plains, Texas Regional Weather

Lat: 32.13N, Lon: 99.17W
Wx Zone: TXZ128Web Search
Cross Plains Weather Warning NWS WEATHER ALERT FOR THE CROSS PLAINS, TX AREA - SHORTTERM FORECAST Issued: 211 PM CDT Tue Apr 13 2021 Cross Plains Weather Warning  

Helpful Tip: Type the letters wx in the search engine next time you need to find us.

Feedback


°F Click to change Cross Plains hourly weather to Imperial units.Click to change Cross Plains hourly weather to Metric units. °C
Cross Plains Weather Map
UTC Time: 4/13/2021, 19:58
Your Time:

Cross Plains, TX Regional Weather

Expires:202104132000;;500701
ASUS44 KFWD 131915
RWRTX 
NORTH TEXAS HOURLY WEATHER ROUNDUP
NATIONAL WEATHER SERVICE FORT WORTH TX
200 PM CDT TUE APR 13 2021

NOTE: "FAIR" INDICATES FEW OR NO CLOUDS BELOW 12,000 FEET WITH NO
SIGNIFICANT WEATHER AND/OR OBSTRUCTIONS TO VISIBILITY.


TXZ083>090-098>101-113>116-127>130-139>142-154-155-132000-
WESTERN NORTH TEXAS
  
CITY           SKY/WX    TMP DP  RH WIND       PRES   REMARKS
WICHITA FALLS  CLOUDY    70  38  31 NE17      30.07F                  
WF-KICKAPOO    FAIR      68  38  33 NE16      30.09F                  
VERNON         CLOUDY    67  30  25 E13       30.11F                  
ABILENE        CLOUDY    59  37  44 N12       30.09F                  
ABILENE-DYESS  CLOUDY    57  33  40 N12       30.08F                  
BRECKENRIDGE   CLOUDY    66  39  38 N8        30.08F                  
CISCO          PTSUNNY   63  41  45 N10       30.06F                  
EASTLAND       CLOUDY    63  43  48 N9        30.06F                  
RANGER         CLOUDY    63  45  52 N8        30.07F                  
MINERAL WELLS  FAIR      70  45  40 NW6       30.03F                  
STEPHENVILLE   PTSUNNY   70  47  44 N7        30.07F                  
COMANCHE       PTSUNNY   67  49  52 N9        30.06F                  
BROWNWOOD      PTSUNNY   68  46  45 NE8       30.04F                  
COLEMAN        CLOUDY    65  40  39 N12G17    30.05F                  
BRADY          CLOUDY    66  46  48 VRB6G13   30.03S                  
$$


SKY/WX - Weather  TMP - Temperature  DP - Dew Point  RH - Relative Humidity
WIND - Wind Direction/Speed PRES - Barometric Pressure VSB - Visibility
WCI - Wind Chill Index E13G22 Wind - East Wind 13 mph/Gusts of 22 mph